GFSSE_700_rhum_231.txt.gz
RH
27 28 23 16 16 17 14 14 11 10 8 7 6 5 6 5 6 9 12 14 16 17 18 17 16 16 16 16 16 17 19 17 14 9 7 10 11 11 10 10 10 10 10
30 30 29 19 16 16 17 17 14 12 11 11 10 10 10 12 12 14 15 16 18 18 17 17 17 16 15 15 16 16 17 15 12 8 8 12 12 11 11 12 12 12 12
18 24 33 29 18 15 16 17 16 14 13 13 13 13 13 14 14 16 17 17 17 17 18 19 21 20 19 17 17 17 16 15 12 8 8 11 12 11 12 12 12 12 11
16 18 26 33 21 15 16 16 16 15 14 14 14 14 15 16 16 16 17 18 18 19 20 22 24 23 22 20 19 18 17 17 10 8 8 11 12 11 11 11 12 12 10
18 17 25 35 27 16 16 16 16 16 16 16 15 16 16 17 17 17 17 18 19 20 21 22 23 22 22 20 20 17 17 17 13 8 8 10 12 11 11 11 11 12 13
16 16 21 37 36 18 17 17 17 17 17 17 17 17 17 17 17 17 18 18 18 19 19 20 20 20 19 18 17 15 16 17 16 10 8 8 12 11 10 10 11 11 12
17 16 19 33 39 20 18 18 19 19 20 20 19 19 18 18 18 18 19 18 18 18 19 20 20 19 18 18 16 15 14 15 16 16 9 8 8 11 11 11 11 11 11
19 20 18 28 32 20 18 18 18 19 20 21 22 24 23 21 21 21 21 20 20 20 19 20 20 19 18 18 17 16 16 15 14 16 15 10 8 8 9 10 10 11 11
23 24 30 24 28 23 21 24 28 26 22 20 20 21 23 26 27 24 24 24 24 23 22 21 20 19 18 18 18 16 16 17 16 15 16 15 11 9 8 8 8 9 11
26 32 37 33 28 28 30 32 34 38 41 38 35 31 27 22 22 27 30 29 27 26 25 24 22 21 19 18 18 17 16 17 17 15 16 15 14 12 10 10 9 8 9
30 35 27 26 30 34 40 43 41 39 43 50 52 51 48 43 36 27 24 29 34 32 29 27 27 26 24 22 19 19 16 17 17 17 16 14 14 14 11 10 11 11 10
28 29 33 37 42 40 33 31 32 43 48 51 54 58 64 63 62 59 54 40 26 31 37 35 30 28 28 28 25 22 19 18 17 18 18 16 14 12 12 11 11 12 12
24 26 28 34 44 46 47 50 48 33 37 47 50 51 55 60 66 65 67 69 66 41 28 36 41 38 35 35 34 30 27 22 19 18 19 18 18 15 13 13 13 13 13
30 28 26 28 37 44 44 36 40 54 35 32 34 41 50 54 54 51 51 53 60 70 72 40 33 42 45 46 45 45 44 36 29 25 22 20 19 19 18 16 15 14 12
26 28 31 33 40 40 40 37 34 34 44 34 34 34 39 54 59 53 49 49 52 51 64 76 53 35 37 44 49 52 56 56 54 52 43 33 24 20 20 19 19 18 17
28 26 30 37 40 32 32 33 34 32 36 36 35 38 41 55 65 66 63 59 57 58 57 59 71 66 44 38 38 40 59 63 62 59 57 58 58 50 34 23 20 20 20
27 24 28 30 30 33 36 35 37 34 33 33 34 35 36 37 37 36 38 42 53 56 59 59 61 57 60 70 62 50 48 57 72 68 60 62 65 66 66 63 47 26 21
28 26 27 32 37 41 40 40 38 38 38 38 37 37 36 40 44 41 50 47 62 62 76 75 71 68 63 60 59 62 67 66 69 72 69 62 59 61 62 65 66 67 59
32 26 30 32 36 40 45 44 43 43 44 43 42 41 41 42 47 50 65 89 82 95 87 97 86 87 86 76 73 73 67 65 62 62 61 71 77 70 70 67 66 68 72
43 41 38 37 28 36 44 48 49 48 48 44 43 44 42 40 38 38 37 37 39 45 72 75 83 81 84 73 95 67 62 62 72 70 72 81 62 64 63 75 82 77 77
44 44 42 40 34 26 35 44 47 47 42 40 38 36 34 28 21 14 10 11 12 16 22 28 30 34 62 74 86 66 51 70 75 62 81 91 100 80 96 78 86 82 82
44 46 44 43 38 33 34 40 43 42 37 27 15 10 9 11 14 14 14 13 10 9 8 9 11 14 19 28 35 36 36 44 53 69 89 93 86 99 79 84 97 95 92
45 46 45 44 41 39 42 43 38 28 16 11 10 13 19 21 22 24 24 22 14 9 7 7 7 8 8 9 13 22 35 66 67 77 77 85 89 85 100 100 91 100 86
46 48 48 45 41 41 42 39 30 21 15 14 15 16 16 20 23 24 21 16 10 8 7 6 6 7 7 7 13 16 24 47 73 76 84 75 72 90 92 96 91 85 84
52 51 49 45 42 41 42 38 32 24 21 20 20 20 22 26 27 26 20 13 6 5 5 5 5 10 14 16 17 17 23 26 28 45 52 68 70 68 85 92 99 92 96
53 52 50 46 44 44 44 44 38 29 24 22 24 26 28 29 31 30 18 6 5 5 7 8 10 14 20 25 35 42 36 37 32 33 43 43 70 53 78 99 100 100 99

GFSSE_700_rhum_234.txt.gz
RH
27 24 18 16 16 15 12 10 8 8 7 8 7 8 6 6 7 10 13 15 16 18 17 17 16 15 15 16 17 17 18 16 14 8 8 11 11 11 11 11 12 12 12
29 28 24 16 16 15 13 12 10 9 9 8 8 9 10 11 12 13 15 15 16 16 16 17 17 16 17 17 18 18 18 14 12 7 8 12 12 11 12 12 12 12 12
22 30 29 19 15 15 14 12 12 12 12 12 12 13 13 14 14 14 16 16 17 18 19 20 20 19 19 19 19 19 19 16 11 8 9 12 12 12 12 12 12 10 10
16 21 30 25 16 15 15 14 14 14 14 14 14 15 15 16 16 16 17 18 18 19 20 22 22 20 19 18 18 19 20 18 12 8 8 12 12 12 12 11 11 11 11
15 16 25 30 19 16 15 16 16 16 16 16 16 16 16 17 17 18 18 19 20 21 22 23 22 20 18 16 16 16 18 19 16 9 8 10 12 12 11 11 11 11 11
16 16 26 37 26 17 16 16 17 17 17 17 17 17 17 18 18 18 19 20 21 22 23 23 22 20 18 17 16 16 16 17 18 14 8 8 10 12 12 10 10 10 10
17 16 23 38 32 19 17 18 18 19 19 19 18 18 18 19 19 20 20 21 22 23 24 25 24 21 18 17 17 16 16 16 17 17 14 9 8 8 11 11 11 11 11
20 19 22 32 39 25 18 19 19 20 21 21 22 23 23 22 21 21 22 22 22 22 23 24 24 23 20 18 17 17 17 17 17 17 16 14 9 8 8 8 9 10 11
24 21 26 26 30 26 19 18 19 20 20 20 20 21 22 24 27 26 24 24 24 24 24 24 24 23 23 20 17 18 18 18 18 17 17 16 15 11 9 9 8 8 8
25 24 26 31 28 25 21 21 25 28 29 29 30 28 27 26 23 23 26 30 30 29 28 28 27 26 25 25 20 18 18 18 19 18 17 16 16 15 12 10 10 10 9
25 26 28 29 31 33 36 37 40 43 45 44 45 47 49 53 56 52 42 31 26 30 34 33 32 32 31 30 27 21 19 18 18 19 19 17 15 15 15 12 11 11 11
30 31 30 28 28 30 32 35 37 40 48 50 51 52 55 57 61 65 67 65 59 44 30 31 37 38 37 37 35 30 26 24 21 19 20 20 17 14 13 12 12 11 12
26 29 26 26 27 39 43 46 46 44 41 33 32 33 40 50 56 54 58 57 61 70 69 61 36 32 41 42 42 39 38 36 32 29 23 20 21 18 14 13 12 13 13
30 28 27 27 29 35 42 45 34 33 36 48 35 33 35 40 51 58 60 55 50 48 50 58 70 65 37 37 44 49 50 49 50 48 43 33 23 21 20 16 15 15 14
28 28 28 27 33 39 44 41 41 39 35 44 46 36 36 37 42 54 67 66 61 58 56 55 55 60 71 54 40 40 47 52 56 56 54 54 54 42 27 21 20 18 17
29 32 31 30 33 36 36 38 36 34 32 34 42 41 38 41 47 63 72 75 76 73 69 64 59 60 63 74 74 58 44 41 42 46 56 61 62 59 56 46 36 25 21
34 36 26 31 43 46 36 28 35 36 37 36 37 37 38 39 42 43 46 47 52 50 54 52 55 63 60 59 54 54 67 76 70 66 56 58 63 62 60 63 61 60 58
34 33 28 27 27 28 29 34 40 45 40 41 41 42 42 46 44 43 42 43 50 52 58 71 61 57 59 58 64 69 62 60 62 69 63 60 65 66 65 63 62 63 65
32 42 33 35 36 35 32 32 39 39 40 41 42 44 45 45 46 47 43 39 36 35 36 35 36 52 60 52 56 58 55 58 64 62 66 61 69 63 70 75 75 72 65
32 42 44 42 41 38 31 30 34 42 44 44 41 41 40 39 38 36 25 12 9 10 12 12 10 10 12 13 17 25 26 27 41 73 66 70 78 78 84 77 97 91 98
35 42 44 45 44 40 37 33 34 45 45 42 41 40 36 26 13 8 12 21 23 24 24 22 21 20 15 12 11 12 12 21 34 34 40 49 50 90 92 98 92 98 98
37 42 44 46 45 43 41 37 35 42 43 41 34 22 12 10 15 21 21 22 24 24 23 20 16 13 11 9 8 9 8 9 11 19 26 31 36 57 71 88 100 98 98
40 43 44 46 46 45 42 39 40 43 41 34 21 13 11 12 15 17 21 25 28 30 25 20 12 8 7 7 7 9 8 7 7 7 8 10 13 19 28 57 97 98 88
42 46 48 49 48 47 44 41 40 41 37 28 20 15 17 20 22 25 27 30 31 31 25 18 12 9 7 6 6 7 13 14 10 6 7 9 15 18 31 53 65 78 97
44 47 52 53 51 50 45 42 40 36 30 26 24 24 24 24 27 32 34 34 32 29 21 16 11 7 6 6 6 7 11 23 37 37 8 8 17 27 31 27 32 64 70
48 49 54 56 54 51 46 42 38 34 33 34 34 30 30 31 33 34 35 33 26 20 12 6 5 4 4 6 13 15 19 29 47 67 70 37 46 58 67 61 52 58 84

GFSSE_700_rhum_240.txt.gz
RH
21 19 18 18 18 16 13 12 15 16 16 16 15 12 8 10 13 15 16 17 16 16 18 19 20 21 21 20 19 18 14 12 8 11 12 11 12 12 12 11 10 11 11
23 20 17 16 16 15 13 11 11 10 11 11 11 9 10 13 16 17 17 17 17 18 19 20 21 20 20 20 19 18 15 11 8 10 12 12 13 12 12 10 10 9 9
27 21 17 16 15 15 13 11 11 10 10 11 11 13 14 15 17 17 17 18 18 19 20 20 20 19 18 19 19 19 17 11 8 10 12 12 13 13 12 11 11 10 10
30 26 20 16 15 15 14 13 13 13 14 14 15 16 16 17 18 18 18 18 19 19 19 20 19 19 18 18 17 17 18 17 10 8 10 13 13 13 12 11 11 11 11
19 25 24 18 15 15 15 15 15 15 16 16 17 17 18 18 18 18 18 19 19 19 19 20 20 18 17 17 17 16 16 17 17 10 8 11 13 12 12 12 11 10 10
18 22 27 23 17 16 16 16 16 17 17 18 18 18 18 18 18 19 19 20 20 20 20 20 20 21 19 18 17 16 16 15 17 17 12 8 9 12 12 12 12 11 11
19 20 28 30 23 17 16 17 17 18 19 20 20 20 20 20 20 20 21 22 22 22 22 21 21 21 21 20 19 19 18 18 16 16 16 14 9 8 9 11 11 11 11
19 22 27 35 32 20 17 18 18 20 20 21 22 23 24 24 24 25 25 26 26 26 26 26 25 24 24 22 21 20 19 19 19 18 16 16 15 11 8 8 9 9 10
20 21 24 32 36 28 19 18 19 20 21 22 23 24 25 27 30 30 28 28 28 28 29 30 31 32 30 28 26 24 22 19 19 20 19 17 16 15 13 10 8 8 8
24 23 24 26 30 31 23 19 20 21 26 31 34 37 38 40 42 46 49 48 44 40 35 32 32 34 36 36 36 32 30 28 24 20 20 20 19 16 16 15 14 11 9
27 29 29 30 28 27 24 22 24 28 36 38 40 42 42 44 47 49 52 56 58 58 56 53 48 43 39 39 39 39 39 38 35 33 29 23 20 20 19 16 15 14 13
29 31 27 28 28 27 29 31 33 37 39 40 41 45 46 48 49 52 55 58 60 63 63 61 62 63 62 60 57 51 44 41 42 43 42 40 35 29 22 20 19 16 14
26 28 28 28 28 30 30 33 36 37 38 40 41 41 43 48 52 54 54 55 58 61 63 61 55 54 53 54 54 53 53 54 51 46 42 44 47 48 47 37 25 21 19
29 29 28 28 29 36 44 46 50 52 53 50 45 45 49 50 45 47 48 46 48 54 62 65 64 60 59 62 65 69 49 49 50 48 49 48 45 43 46 52 53 51 34
28 28 28 30 31 35 43 48 49 54 54 48 43 39 40 46 54 45 42 42 46 51 59 64 66 65 61 58 55 56 58 57 58 57 55 50 53 50 52 46 46 53 55
29 29 29 34 34 34 37 45 49 50 49 45 38 38 39 45 52 48 41 39 40 39 45 48 50 51 49 53 49 39 21 34 35 50 46 56 54 69 62 57 56 51 54
30 30 30 35 38 39 42 47 52 50 45 36 40 39 42 42 44 41 42 44 45 42 42 36 30 20 14 14 17 19 19 21 23 24 24 22 19 20 46 72 70 66 68
32 31 34 32 31 34 39 40 43 42 40 41 46 44 42 42 44 45 42 40 37 33 23 12 10 14 18 18 17 18 20 22 24 25 24 24 22 18 17 18 30 66 72
32 32 35 36 36 33 36 36 34 30 31 34 40 41 42 43 42 40 37 34 25 12 11 16 16 16 15 17 22 24 26 27 27 26 25 24 22 21 18 12 12 14 24
32 32 34 41 42 43 43 41 37 37 35 32 37 42 41 38 36 34 31 18 11 11 13 14 15 17 22 29 30 29 28 27 25 23 23 20 17 16 14 14 11 10 9
31 32 34 41 40 45 46 47 44 42 37 30 33 36 35 34 34 30 17 11 12 13 14 17 21 31 32 30 28 25 22 20 18 16 16 16 15 15 15 12 11 10 9
32 32 34 37 39 44 45 50 48 46 40 32 29 34 36 35 29 17 13 13 13 17 20 23 31 34 33 32 27 19 15 11 8 7 6 5 5 5 6 9 12 12 11
33 35 36 35 38 43 46 51 50 47 43 40 35 38 39 32 22 18 16 16 21 26 27 34 36 37 34 26 18 11 7 5 4 5 4 6 5 3 2 2 3 3 4
34 37 40 40 39 41 47 52 53 50 48 44 41 39 36 28 22 20 21 29 33 32 37 40 40 34 25 16 9 4 3 3 3 3 4 3 3 4 6 4 4 5 5
37 38 40 42 40 40 46 50 54 52 50 47 44 40 37 32 24 24 34 40 36 40 42 43 39 28 17 10 4 3 3 3 4 5 3 4 5 7 8 8 8 10 14
37 37 39 40 40 41 44 50 53 55 52 51 46 41 35 29 26 36 45 42 44 45 48 44 36 21 9 4 3 4 4 6 7 9 8 7 7 6 7 11 23 43 75

GFSSE_700_rhum_246.txt.gz
RH
25 21 22 22 22 22 21 17 14 12 10 10 10 12 13 15 16 16 17 17 18 19 20 20 19 18 18 18 17 13 10 8 11 11 12 12 12 12 10 10 10 9 10
21 20 20 21 22 22 21 18 14 14 13 13 13 14 15 16 16 17 17 18 19 20 21 20 19 18 17 17 18 16 11 8 8 11 11 12 12 12 10 10 9 8 8
23 22 19 19 20 21 20 18 15 14 15 15 15 15 16 16 17 17 18 18 19 20 19 20 19 18 17 16 16 17 15 9 7 9 10 11 11 12 11 11 11 10 9
28 25 23 20 18 19 18 17 16 16 16 16 16 16 17 17 17 18 18 19 19 19 19 19 19 18 17 16 15 15 16 16 11 8 8 7 11 11 11 11 10 10 10
19 25 25 24 18 17 17 16 16 16 17 17 18 18 18 18 18 19 20 20 21 21 21 20 20 19 18 17 16 16 16 15 15 15 9 7 9 11 11 11 10 10 9
15 16 21 23 21 17 16 16 17 18 18 19 20 20 20 21 22 23 23 24 25 26 27 26 25 23 21 20 18 17 16 16 16 15 14 14 11 8 8 9 11 11 10
16 16 20 23 22 18 16 16 17 19 20 21 22 23 24 25 26 27 27 28 28 30 31 32 33 33 33 30 27 23 21 18 17 17 17 15 15 14 12 9 8 8 8
23 16 17 25 25 20 16 17 18 19 21 23 24 25 28 30 31 32 34 35 37 38 42 44 44 41 39 38 38 38 35 30 25 22 18 17 17 17 15 14 13 11 9
28 18 18 25 30 26 18 17 18 20 22 24 26 29 30 32 34 36 40 42 45 48 49 51 50 51 52 51 49 46 43 41 40 38 31 26 23 20 18 18 17 16 14
26 19 19 20 31 31 24 19 18 20 24 26 29 31 32 33 35 38 42 44 46 48 48 47 50 48 45 42 39 37 40 43 47 44 45 44 42 39 35 31 26 22 19
26 22 21 20 22 28 28 21 19 20 24 28 30 33 34 35 38 39 42 42 44 45 46 47 49 51 46 42 38 42 41 42 45 42 45 48 49 47 45 44 44 45 45
27 26 27 24 22 25 26 24 21 21 24 28 32 35 38 38 38 39 43 40 42 45 46 45 44 46 47 43 43 42 39 39 40 43 36 42 50 48 48 48 49 48 46
27 26 28 25 24 26 26 26 26 25 26 30 35 38 39 41 43 42 42 44 44 41 37 39 40 47 55 46 41 48 40 44 45 38 39 30 24 38 44 45 46 46 49
23 25 26 28 26 26 28 28 28 30 32 35 36 40 46 45 46 49 43 34 45 44 34 33 33 41 48 58 67 54 52 36 20 15 16 15 17 18 18 17 16 16 21
25 25 26 27 26 27 28 30 36 39 38 42 46 48 49 48 47 48 55 54 53 44 39 45 52 45 54 61 54 35 19 15 15 18 23 26 25 24 24 24 25 24 22
29 26 26 27 27 28 29 32 33 38 45 50 55 55 60 57 43 56 56 56 66 70 54 55 51 54 53 47 16 14 14 16 27 29 28 26 25 24 23 22 21 21 20
61 28 27 27 28 29 31 34 35 38 40 57 63 62 58 49 56 77 57 68 63 53 49 51 44 36 18 12 12 13 18 27 29 32 32 29 26 22 20 19 18 16 16
73 44 28 28 28 29 31 33 38 37 43 48 56 51 51 48 69 69 51 56 54 48 46 39 25 13 12 12 15 18 24 30 35 34 32 27 24 21 18 15 15 14 12
69 62 49 28 29 30 30 34 35 36 42 41 48 53 46 45 60 57 51 54 60 42 37 21 12 12 13 17 19 21 27 37 37 36 33 30 23 17 14 12 10 9 9
61 66 67 41 29 30 30 33 33 28 30 36 42 41 43 41 49 48 47 68 45 35 23 12 13 14 19 23 25 31 40 41 40 36 30 23 18 16 12 10 10 7 6
60 70 72 61 32 31 30 32 38 32 34 36 39 44 42 42 49 45 42 40 35 23 15 14 16 22 30 31 35 43 44 42 38 30 25 19 12 10 9 5 4 4 3
52 71 75 66 40 30 31 32 40 40 45 46 45 45 43 34 40 40 38 36 29 20 17 18 25 35 36 40 44 46 44 39 34 28 18 12 8 5 5 3 3 2 2
47 65 72 59 38 31 32 32 37 48 54 49 49 50 46 39 33 37 33 33 25 23 22 26 35 41 42 47 49 48 42 36 29 20 15 10 6 4 3 2 2 2 2
39 52 60 61 47 32 32 32 35 44 51 51 55 56 50 45 37 34 36 34 29 26 27 32 42 44 49 52 53 48 38 30 21 16 9 5 3 3 2 2 2 2 2
33 37 45 56 51 35 36 31 34 40 47 51 54 52 56 51 45 41 39 36 31 32 31 40 47 51 54 57 56 44 35 23 11 6 5 3 3 2 2 2 2 2 4
34 37 42 52 41 41 44 33 34 39 45 50 52 53 60 56 51 46 42 39 35 32 36 49 51 56 60 61 50 38 25 13 6 4 3 3 2 3 3 3 3 4 6